CZ-6A DEB, 61075

Orbit data source: Space-Track

CZ-6A DEB, 61075 is space debris in LEO originally from a launch on Tue, 06 Aug 2024 UTC launched from the Taiyaun Space Center, China (TSC). Debris objects in space refer to the collection of defunct objects orbiting the Earth. Examples of debris include non-operational satellites, rocket bodies, and fragments generated from explosions, collisions, or faulty payload assembly.

Loading next visibility...
Identifier
61075, 2024-140MR
Orbit
LEO
Country
Flag of CNCN / PRC
Related business
Manufacturer
SAST
Mission
Spacecraft
Bus & Motor
Unknown
Mass
Unknown
Launch date (UTC)
2024-08-06 (1 year ago)
Launch vehicle
Unknown
Launch site
Taiyaun Space Center, China (TSC)
Object type
Payload
Rocket body
Debris
Shape & HBR
Unknown shape, 0.2 m
Radar Cross Section
Small (<0.1 m²)

Expand to show TLE details & history
Last TLE update: 21 hours ago

TLE from 21 hours ago
0 CZ-6A DEB
1 61075U 24140MR  25312.74928162  .00005263  00000-0  86770-3 0  9999
2 61075  89.0605 299.5671 0147182 282.2263  76.2501 14.63370352 64742
Epoch: 2025-11-08T17:58Z
TLE epoch observation values (Epoch: 2025-11-08T17:58:57.931Z)
Latitude
-0.00009°
Longitude
-18.34871°
Altitude
662.174 km
Speed
7.538 km/s
True Right ascension
19h 58m 16s
True Declination
0° 00' 00"
Sunlit
Object was in daylight at epoch
Visualization orbit readout
Latitude
Unknown
Longitude
Unknown
Altitude
Unknown
Speed
Unknown
Apparent Right ascension
Unknown
Apparent Declination
Unknown
Sunlit
N/A
Visualization observer readout
Local Sidereal Time
11:26:52
Azimuth
Unknown
Elevation
Unknown
Doppler factor
Unknown
Orbital elements
Apogee altitude
783.072 km
Perigee altitude
575.329 km
Semi-major axis
7,057.337 km
Eccentricity
0.01472
Inclination
89.0605°
RAAN
299.5671°
Arg. of periapsis
282.2263°
True anomaly
77.89532°
Mean anomaly
76.2501°
Eccentric anomaly
77.07202°
Mean motion
3.66085 °/min
Orbital period
98.34 mins
BSTAR
0.0008677
Loading maneuver chart data...
Computing Atmospheric mass density...
Loading historical data...
Loading historical data...
Loading historical data...
Loading historical data...
Loading historical data...
Loading historical data...
Loading historical data...

Documentation

Showing up to 5 results
|